Terug naar catalogus

STARLINK-35795

ActiefCommunicatieVLEO
NORAD 66369·PAYLOAD·🇺🇸 United States

Gelanceerd Nov 6, 2025 vanaf Vandenberg Space Force Base

Loading…

Volgende Passages (komende 24 uur)

TLE

VersSource: CelesTrak SupGP

Epoch: Sep 14, 2026, 21:04 UTC

1 66369C 25254X   26257.87826389  .00002510  00000+0  74196-4 0  2576
2 66369  53.1583  69.6724 0001239  84.8406  47.6894 15.34377773    12

Volg STARLINK-35795 in realtime met AllMySat

Download on the App Store